Olney-Noble, IL

2:14 AM CDT on April 23, 2017 (GMT -0500)
Olney-Noble

Weather History for KOLY - March, 2013

Change the Weather History Date:

Wednesday, March 6, 2013

  Actual Average (KEVV) Record (KEVV)
Temperature  
Mean Temperature 32 °F -  
Max Temperature 33 °F 51 °F 76 °F (1956)
Min Temperature 30 °F 31 °F -9 °F (1960)
Degree Days  
Heating Degree Days 34    
Moisture  
Dew Point 27 °F    
Average Humidity 85    
Maximum Humidity 93    
Minimum Humidity 75    
Precipitation  
Precipitation 0.00 in - - ()
Sea Level Pressure  
Sea Level Pressure 30.22 in    
Wind  
Wind Speed 18 mph (NW)    
Max Wind Speed 25 mph    
Max Gust Speed 36 mph    
Visibility 10 miles    
Events      
Averages and records for this station are not official NWS values.
T = Trace of Precipitation, MM = Missing Value Source: NWS Daily Summary

Daily Weather History Graph

Daily Weather History Graph

Search for Another Location

Airport or City:

Trip Planner

Search our weather history database for the weather conditions in past years. The results will help you decide how hot, cold, wet, or windy it might be!

Date:

Astronomy

Mar. 06, 2013 Rise Set
Actual Time 6:17 AM CST 5:51 PM CST
Civil Twilight 5:50 AM CST 6:17 PM CST
Nautical Twilight 5:20 AM CST 6:48 PM CST
Astronomical Twilight 4:49 AM CST 7:19 PM CST
Moon 2:23 AM CST (3/6) 12:35 PM CST (3/6)
Length of Visible Light 12h 26m
Length of Day
11h 33m
Waning Crescent, 29% of the Moon is Illuminated
Mar 6
Waning Crescent
Mar 11
New
Mar 19
First Quarter
Mar 27
Full
Apr 2
Last Quarter

Hourly Weather History & Observations

Time (CST) Temp. Windchill Dew Point Humidity Pressure Visibility Wind Dir Wind Speed Gust Speed Precip Events Conditions
12:15 AM 32.0 °F 18.6 °F 28.4 °F 87% 29.96 in - WNW 25.3 mph 31.1 mph N/A   Overcast
12:35 AM 32.0 °F 19.2 °F 28.4 °F 87% 29.97 in - WNW 23.0 mph 31.1 mph N/A   Unknown
12:55 AM 32.0 °F 19.5 °F 28.4 °F 87% 29.98 in 7.0 mi NW 21.9 mph 27.6 mph N/A   Overcast
1:15 AM 32.0 °F 19.2 °F 28.4 °F 87% 29.99 in 7.0 mi WNW 23.0 mph 31.1 mph N/A   Overcast
1:35 AM 32.0 °F 18.9 °F 28.4 °F 87% 30.00 in 7.0 mi NW 24.2 mph 32.2 mph N/A   Overcast
1:55 AM 30.2 °F 17.8 °F 28.4 °F 93% 30.01 in 10.0 mi NW 19.6 mph 35.7 mph N/A   Overcast
2:15 AM 32.0 °F 19.8 °F 28.4 °F 87% 30.01 in 10.0 mi NW 20.7 mph 29.9 mph N/A   Overcast
2:35 AM 30.2 °F 17.1 °F 28.4 °F 93% 30.02 in 10.0 mi NW 21.9 mph 32.2 mph N/A   Overcast
2:55 AM 30.2 °F 16.5 °F 28.4 °F 93% 30.03 in 10.0 mi NW 24.2 mph 32.2 mph N/A   Overcast
3:15 AM 30.2 °F 17.4 °F 28.4 °F 93% 30.04 in 10.0 mi NW 20.7 mph 29.9 mph N/A   Overcast
3:35 AM 30.2 °F 17.8 °F 28.4 °F 93% 30.05 in 10.0 mi NW 19.6 mph 25.3 mph N/A   Overcast
3:55 AM 30.2 °F 17.4 °F 28.4 °F 93% 30.06 in 10.0 mi NW 20.7 mph 29.9 mph N/A   Overcast
4:15 AM 30.2 °F 17.4 °F 28.4 °F 93% 30.07 in 10.0 mi NW 20.7 mph 27.6 mph N/A   Overcast
4:35 AM 30.2 °F 17.4 °F 28.4 °F 93% 30.08 in 10.0 mi NW 20.7 mph 26.5 mph N/A   Overcast
4:55 AM 30.2 °F 17.8 °F 28.4 °F 93% 30.10 in 10.0 mi NW 19.6 mph 25.3 mph N/A   Overcast
5:15 AM 30.2 °F 18.9 °F 28.4 °F 93% 30.11 in 10.0 mi NW 16.1 mph - N/A   Overcast
5:35 AM 30.2 °F 17.8 °F 28.4 °F 93% 30.12 in 10.0 mi NW 19.6 mph 28.8 mph N/A   Overcast
5:55 AM 30.2 °F 16.8 °F 28.4 °F 93% 30.14 in 10.0 mi NW 23.0 mph - N/A   Overcast
6:15 AM 30.2 °F 17.4 °F 28.4 °F 93% 30.15 in 10.0 mi NW 20.7 mph 25.3 mph N/A   Overcast
6:35 AM 30.2 °F 18.9 °F 28.4 °F 93% 30.16 in 10.0 mi NW 16.1 mph 21.9 mph N/A   Overcast
6:55 AM 32.0 °F 21.6 °F 28.4 °F 87% 30.17 in 10.0 mi NW 15.0 mph 25.3 mph N/A   Overcast
7:15 AM 30.2 °F 18.5 °F 28.4 °F 93% 30.18 in 10.0 mi NW 17.3 mph 21.9 mph N/A   Overcast
7:35 AM 32.0 °F 21.6 °F 28.4 °F 87% 30.19 in 10.0 mi NW 15.0 mph 21.9 mph N/A   Overcast
7:55 AM 32.0 °F 20.5 °F 26.6 °F 80% 30.20 in 10.0 mi NW 18.4 mph 26.5 mph N/A   Overcast
8:15 AM 32.0 °F 20.5 °F 26.6 °F 80% 30.22 in 10.0 mi NW 18.4 mph 28.8 mph N/A   Overcast
8:35 AM 30.2 °F 17.1 °F 26.6 °F 86% 30.23 in 10.0 mi NW 21.9 mph 27.6 mph N/A   Overcast
8:55 AM 32.0 °F 20.5 °F 26.6 °F 80% 30.24 in 10.0 mi NW 18.4 mph 26.5 mph N/A   Overcast
9:15 AM 32.0 °F 21.6 °F 28.4 °F 87% 30.25 in 10.0 mi NW 15.0 mph 18.4 mph N/A   Overcast
9:35 AM 32.0 °F 21.2 °F 26.6 °F 80% 30.26 in 10.0 mi NW 16.1 mph 20.7 mph N/A   Overcast
9:55 AM 32.0 °F 21.6 °F 26.6 °F 80% 30.26 in 10.0 mi NW 15.0 mph 20.7 mph N/A   Overcast
10:15 AM 32.0 °F 21.6 °F 26.6 °F 80% 30.27 in 10.0 mi NW 15.0 mph 21.9 mph N/A   Overcast
10:35 AM 32.0 °F 20.8 °F 26.6 °F 80% 30.27 in 10.0 mi NW 17.3 mph 21.9 mph N/A   Overcast
10:55 AM 32.0 °F 21.2 °F 26.6 °F 80% 30.28 in 10.0 mi NW 16.1 mph 19.6 mph N/A   Overcast
11:15 AM 32.0 °F 21.2 °F 26.6 °F 80% 30.29 in 10.0 mi NW 16.1 mph 21.9 mph N/A   Overcast
11:35 AM 32.0 °F 21.2 °F 26.6 °F 80% 30.29 in 10.0 mi NW 16.1 mph 21.9 mph N/A   Overcast
11:55 AM 32.0 °F 20.5 °F 26.6 °F 80% 30.30 in 10.0 mi NW 18.4 mph 23.0 mph N/A   Overcast
12:15 PM 32.0 °F 21.6 °F 26.6 °F 80% 30.30 in 10.0 mi NNW 15.0 mph - N/A   Overcast
12:55 PM 32.0 °F 22.5 °F 26.6 °F 80% 30.28 in 10.0 mi NNW 12.7 mph - N/A   Overcast
1:15 PM 33.8 °F 25.8 °F 28.4 °F 81% 30.28 in 10.0 mi NW 10.4 mph - N/A   Overcast
1:35 PM 33.8 °F 24.8 °F 28.4 °F 81% 30.28 in 10.0 mi NNW 12.7 mph - N/A   Overcast
1:55 PM 33.8 °F 25.8 °F 28.4 °F 81% 30.28 in 10.0 mi NW 10.4 mph - N/A   Overcast
2:15 PM 33.8 °F 25.3 °F 28.4 °F 81% 30.29 in 10.0 mi NW 11.5 mph - N/A   Overcast
2:35 PM 33.8 °F 25.3 °F 28.4 °F 81% 30.29 in 10.0 mi NW 11.5 mph - N/A   Overcast
2:55 PM 33.8 °F 25.8 °F 28.4 °F 81% 30.30 in 10.0 mi NW 10.4 mph - N/A   Overcast
3:15 PM 33.8 °F 26.4 °F 26.6 °F 75% 30.30 in 10.0 mi NW 9.2 mph - N/A   Overcast
3:35 PM 33.8 °F 24.8 °F 28.4 °F 81% 30.30 in 10.0 mi NW 12.7 mph - N/A   Overcast
3:55 PM 33.8 °F 24.3 °F 26.6 °F 75% 30.30 in 10.0 mi NW 13.8 mph - N/A   Overcast
4:15 PM 33.8 °F 25.3 °F 28.4 °F 81% 30.31 in 10.0 mi NW 11.5 mph - N/A   Overcast
5:15 PM 32.0 °F 22.1 °F 28.4 °F 87% 30.32 in 10.0 mi NW 13.8 mph - N/A   Overcast
5:35 PM 32.0 °F 24.2 °F 26.6 °F 80% 30.33 in 10.0 mi NW 9.2 mph 16.1 mph N/A   Overcast
5:55 PM 32.0 °F 23.0 °F 26.6 °F 80% 30.33 in 10.0 mi NW 11.5 mph 18.4 mph N/A   Overcast
6:35 PM 32.0 °F 22.5 °F 26.6 °F 80% 30.33 in 10.0 mi NW 12.7 mph - N/A   Overcast
6:55 PM 30.2 °F 20.8 °F 26.6 °F 86% 30.33 in 10.0 mi NNW 11.5 mph - N/A   Overcast
7:15 PM 30.2 °F 22.6 °F 26.6 °F 86% 30.33 in 10.0 mi NNW 8.1 mph - N/A   Overcast
7:35 PM 30.2 °F 21.3 °F 26.6 °F 86% 30.33 in 10.0 mi NW 10.4 mph - N/A   Overcast
7:55 PM 30.2 °F 21.3 °F 24.8 °F 80% 30.33 in 10.0 mi NNW 10.4 mph 18.4 mph N/A   Overcast
8:15 PM 30.2 °F 21.9 °F 26.6 °F 86% 30.34 in 10.0 mi NW 9.2 mph - N/A   Overcast
8:55 PM 30.2 °F 22.6 °F 26.6 °F 86% 30.33 in 10.0 mi WNW 8.1 mph - N/A   Overcast
9:15 PM 30.2 °F 21.9 °F 26.6 °F 86% 30.33 in 10.0 mi WNW 9.2 mph - N/A   Overcast
9:35 PM 30.2 °F 21.9 °F 26.6 °F 86% 30.33 in 10.0 mi NW 9.2 mph - N/A   Overcast
9:55 PM 30.2 °F 22.6 °F 26.6 °F 86% 30.33 in 10.0 mi NW 8.1 mph - N/A   Overcast
10:15 PM 30.2 °F 22.6 °F 26.6 °F 86% 30.33 in 10.0 mi NNW 8.1 mph - N/A   Overcast
10:35 PM 30.2 °F 24.3 °F 26.6 °F 86% 30.33 in 10.0 mi WNW 5.8 mph - N/A   Overcast
10:55 PM 30.2 °F 24.3 °F 26.6 °F 86% 30.33 in 10.0 mi WNW 5.8 mph - N/A   Overcast
11:15 PM 30.2 °F 25.4 °F 26.6 °F 86% 30.33 in 10.0 mi WNW 4.6 mph - N/A   Overcast
11:35 PM 30.2 °F 25.4 °F 26.6 °F 86% 30.33 in 10.0 mi WNW 4.6 mph - N/A   Overcast
11:55 PM 30.2 °F 24.3 °F 26.6 °F 86% 30.33 in 10.0 mi WNW 5.8 mph - N/A   Overcast